Location: Ertinghausen
(51.6624°N, 9.7874°E)
Time: 09:08:03
(UTC+00:00)

Meteor 1-24 Rocket - Pass Details

Date: 23 May 2024
Orbit: 788 x 927 km, 81.3° (Epoch: 23 June)

Event Time Altitude Azimuth Distance (km) Brightness Sun altitude
Exits shadow 02:02:48 - 187° (S) 2,966 6.0 -9.2°
Reaches altitude 10° 02:03:42 10° 187° (S) 2,625 5.8 -9.1°
Maximum altitude 02:09:44 83° 100° (E) 939 4.0 -8.5°
Drops below altitude 10° 02:15:45 10° 14° (NNE) 2,615 7.4 -7.9°
Sets 02:18:13 0° 14° (NNE) 3,547 8.2 -7.6°
